Location: Unspecified
(41.5516°N, 88.1098°W)
Time: 04:36:22
(UTC-05:00)

Resurs 1-4 Rocket - Visible Passes

Search period start: 29 May 2016 00:00
Search period end: 08 June 2016 00:00
Orbit: 800 x 814 km, 98.4° (Epoch: 27 May)

Date Brightness Start Highest point End Pass type
(mag) Time Alt. Az. Time Alt. Az. Time Alt. Az.
29 May 3.4 03:05:04 10° NNE 03:09:52 34° E 03:14:14 12° SSE visible
29 May 3.1 04:44:58 10° N 04:49:37 31° WNW 04:54:16 10° SW visible
30 May 4.2 02:41:14 10° NE 02:45:08 20° E 02:49:01 10° SE visible
30 May 2.5 04:20:06 10° N 04:25:15 51° WNW 04:30:23 10° SW visible
31 May 4.6 02:18:26 10° ENE 02:20:19 12° E 02:22:11 10° ESE visible
31 May 2.1 03:55:26 10° NNE 04:00:47 84° WNW 04:05:42 12° SSW visible
01 Jun 2.6 03:30:58 10° NNE 03:36:15 59° E 03:40:52 13° S visible
02 Jun 3.4 03:06:44 10° NNE 03:11:36 35° E 03:16:04 12° SSE visible
02 Jun 3.2 04:46:45 10° N 04:51:20 30° WNW 04:55:54 10° SW visible
03 Jun 4.1 02:42:52 10° NE 02:46:53 21° E 02:50:52 10° SE visible
03 Jun 2.5 04:21:50 10° N 04:26:57 49° WNW 04:32:04 10° SW visible
04 Jun 4.6 02:19:53 10° ENE 02:22:03 12° E 02:24:14 10° ESE visible
04 Jun 2.1 03:57:09 10° N 04:02:31 81° WNW 04:07:30 12° SSW visible
05 Jun 2.5 03:32:40 10° NNE 03:37:59 62° ESE 03:42:41 13° S visible
06 Jun 3.3 03:08:25 10° NNE 03:13:21 37° E 03:17:51 12° SSE visible
07 Jun 4.0 02:44:30 10° NE 02:48:37 22° E 02:52:43 10° SE visible
07 Jun 2.6 04:23:35 10° N 04:28:40 47° WNW 04:33:44 10° SW visible
